Regional Weather Roundup
Issued by NWS

Home | Current Version | Previous Version | Text Only | Print | Product List | Glossary On
Versions: 1 2 3 4 5 6 7 8 9 10 11 12 13 14 15 16 17 18 19 20 21 22 23 24 25 26 27 28 29 30 31 32 33 34 35 36 37 38 39 40 41 42 43 44 45 46 47 48 49 50
000
ASUS43 KDTX 101610
RWRMI
MICHIGAN HOURLY REGIONAL WEATHER ROUNDUP
NATIONAL WEATHER SERVICE DETROIT/PONTIAC MI
ISSUED BY NATIONAL WEATHER SERVICE GRAND RAPIDS MI
1100 AM EST SAT DEC 10 2016

NOTE: "FAIR" INDICATES FEW OR NO CLOUDS BELOW 12,000 FEET WITH NO
SIGNIFICANT WEATHER AND/OR OBSTRUCTION TO VISIBILITY.

MIZ047>049-052>055-059>063-066>070-074>076-081>083-101700-
SOUTHEAST LOWER MICHIGAN

CITY           SKY/WX    TMP DP  RH WIND       PRES   REMARKS
ADRIAN         SUNNY     24  14  65 W10       30.47F WCI  14
ALMA           LGT SNOW  23  20  87 SW8       30.43S WCI  14
ANN ARBOR      MOSUNNY   24  18  77 SW14      30.45S WCI  12
BAD AXE        PTSUNNY   25  11  57 W14G20    30.39S WCI  13
DETROIT CITY   MOSUNNY   26  16  65 SW16      30.45S WCI  14
DETROIT        PTSUNNY   26  19  74 W9        30.47S WCI  17
FLINT          LGT SNOW  23  18  81 SW8       30.43S WCI  14
GROSSE ILE     MOSUNNY   26  19  72 W10       30.46S WCI  17
HILLSDALE      MOSUNNY   23  12  63 W8        30.44R WCI  14
HOWELL         LGT SNOW  24  19  81 SW9       30.42S WCI  14

CITY           SKY/WX    TMP DP  RH WIND       PRES   REMARKS
JACKSON        FLURRIES  22  15  75 SW16      30.43S WCI   8
LANSING        LGT SNOW  24  18  77 SW13      30.43S WCI  12
MASON          LGT SNOW  23  19  85 W7        30.43S WCI  15
MONROE         SUNNY     27  19  71 W12       30.47S WCI  16
MT. CLEMENS    MOSUNNY   27  15  59 W9        30.42S WCI  18
PONTIAC        FLURRIES  23  16  74 SW9       30.40F WCI  13
PORT HOPE        N/A     25  11  55 W12G21    30.36S WCI  14
PORT HURON     PTSUNNY   25  14  63 W5        30.43S WCI  19
TRI CITIES     LGT SNOW  24  17  74 SW12      30.43R WCI  13
YPSILANTI      SUNNY     26  19  74 W12       30.46S WCI  16
$$
MIZ043>046-050>051-056>058-064>065-071>073-077>080-101700-
SOUTHWEST LOWER MICHIGAN

CITY           SKY/WX    TMP DP  RH WIND       PRES   REMARKS
BATTLE CREEK   LGT SNOW  21  18  88 SW14      30.45R FOG     WCI   8
BENTON HARBOR  LGT SNOW  26  17  68 W14       30.49S WCI  14
BIG RAPIDS     LGT SNOW  22  15  74 W8G16     30.39R WCI  12
COLDWATER      FLURRIES  23  16  75 SW14      30.47R WCI  10
HOLLAND        LGT SNOW  26  17  68 W10G18    30.46R WCI  16
GRAND RAPIDS   LGT SNOW  24  17  74 W9        30.44S WCI  14
KALAMAZOO      SNOW      22  17  81 SW13      30.46R VSB 1/2 WCI  10
MARSHALL       LGT SNOW  22  18  83 SW14G20   30.44S WCI   9
MOUNT PLEASANT PTSUNNY   24  16  70 W9G18     30.40S WCI  14
MUSKEGON       FLURRIES  24  15  68 W12G22    30.45R WCI  13
STURGIS        FLURRIES  22  17  81 W10       30.48R WCI  11
$$
MIZ016>042-101700-
NORTHERN LOWER MICHIGAN

CITY           SKY/WX    TMP DP  RH WIND       PRES   REMARKS
ALPENA         CLOUDY    22  16  78 W7        30.35S WCI  13
BEAVER ISLAND  CLOUDY    20  13  73 W10G16    30.34F WCI   9
BELLAIRE       LGT SNOW  22  16  78 NW9G17    30.37S WCI  12
CADILLAC       LGT SNOW  17  12  79 SW8       30.33S WCI   7
CHARLEVOIX     LGT SNOW  21  14  75 W13       30.38S WCI   9
GAYLORD        LGT SNOW  19  13  77 W7        30.30S WCI  10
HOUGHTON LAKE  SUNNY     19  11  70 SW8       30.35S WCI   9
MANISTEE       FLURRIES  22  16  78 W8        30.41R WCI  12
OSCODA         SUNNY     26  13  56 MISG      30.36S
PELLSTON       LGT SNOW  20  14  77 W5        30.34S WCI  13
TRAVERSE CITY  LGT SNOW  21  15  78 W9        30.38R VSB 1   WCI  11
LUDINGTON      CLOUDY    22  10  61 W9        30.43R WCI  12
$$
MIZ007>008-015-101700-
EASTERN UPPER MICHIGAN

CITY           SKY/WX    TMP DP  RH WIND       PRES   REMARKS
KINROSS        CLOUDY    16  10  77 W7        30.31S WCI   6
MACKINAC ISLAN LGT SNOW  20  14  77 W16G23    30.31S WCI   6
NEWBERRY       SUNNY     13   8  79 SW10      30.28S WCI   0
S. S. MARIE    FLURRIES  15  11  83 S3        30.30S
$$
MIZ004>006-011>014-085-101700-
CENTRAL UPPER MICHIGAN

CITY           SKY/WX    TMP DP  RH WIND       PRES   REMARKS
MANISTIQUE     SUNNY     14   5  69 W14       30.34S WCI  -1
ESCANABA       SUNNY     15   4  61 W15G21    30.39S WCI   0
MENOMINEE      SUNNY     16   2  54 NW8       30.44  WCI   5
SAWYER-GWINN   SUNNY     10   3  72 W12       30.33R WCI  -4
$$
MIZ001>003-009>011-084-101700-
WESTERN UPPER MICHIGAN

CITY           SKY/WX    TMP DP  RH WIND       PRES   REMARKS
IRON MOUNTAIN  SUNNY     12  -1  56 NW10      30.35F WCI  -1
HOUGHTON       CLOUDY    13   5  70 NW16      30.33S WCI  -3
COPPER HARBOR    N/A     18  11  74 NW9G21    30.35S WCI   7
IRONWOOD       LGT SNOW   6   0  76 SW10      30.41R WCI  -9
$$

ABBREVIATIONS USED IN REMARKS
   TC - TEMPERATURE IN CELSIUS
  WCI - WIND CHILL INDEX
   HX - HEAT INDEX
  VSB - VISIBILITY





USA.gov is the U.S. government's official web portal to all federal, state and local government web resources and services.